Rockport, TX

10:41 PM CST on November 19, 2017 (GMT -0600)
Aransas County

Weather History for KRKP - April, 2014

Change the Weather History Date:

Thursday, April 17, 2014

  Actual Average Record
Temperature  
Mean Temperature 68 °F -  
Max Temperature 73 °F 78 °F 87 °F (1986)
Min Temperature 64 °F 65 °F 46 °F (1999)
Cooling Degree Days 3    
Growing Degree Days 18 (Base 50)    
Moisture  
Dew Point 62 °F    
Average Humidity 84    
Maximum Humidity 94    
Minimum Humidity 71    
Precipitation  
Precipitation 0.00 in - - ()
Sea Level Pressure  
Sea Level Pressure 30.03 in    
Wind  
Wind Speed 13 mph (East)    
Max Wind Speed 20 mph    
Max Gust Speed 25 mph    
Visibility 9 miles    
Events Rain    
Averages and records for this station are not official NWS values.
T = Trace of Precipitation, MM = Missing Value Source: NWS Daily Summary

Daily Weather History Graph

Daily Weather History Graph

Search for Another Location

Airport or City:

Trip Planner

Search our weather history database for the weather conditions in past years. The results will help you decide how hot, cold, wet, or windy it might be!

Date:

Astronomy

Apr. 17, 2014 Rise Set
Actual Time 7:01 AM CDT 7:54 PM CDT
Civil Twilight 6:36 AM CDT 8:18 PM CDT
Nautical Twilight 6:08 AM CDT 8:47 PM CDT
Astronomical Twilight 5:39 AM CDT 9:16 PM CDT
Moon 10:31 PM CDT (4/17) 8:42 AM CDT (4/17)
Length of Visible Light 13h 41m
Length of Day
12h 53m
Waning Gibbous, 93% of the Moon is Illuminated
Apr 17
Waning Gibbous
Apr 22
Last Quarter
Apr 29
New
May 6
First Quarter
May 14
Full

Hourly Weather History & Observations

Time (CDT) Temp. Dew Point Humidity Pressure Visibility Wind Dir Wind Speed Gust Speed Precip Events Conditions
12:53 AM 66.0 °F 57.9 °F 75% 29.99 in 10.0 mi SE 12.7 mph - N/A   Clear
1:53 AM 66.9 °F 59.0 °F 76% 29.99 in 10.0 mi SE 13.8 mph - N/A   Mostly Cloudy
2:53 AM 66.9 °F 59.0 °F 76% 29.98 in 10.0 mi SE 11.5 mph - N/A   Overcast
3:53 AM 66.9 °F 60.1 °F 79% 29.98 in 10.0 mi ESE 10.4 mph - N/A   Overcast
4:53 AM 66.9 °F 61.0 °F 81% 29.97 in 10.0 mi ESE 10.4 mph - N/A   Overcast
5:30 AM 66.0 °F 60.1 °F 81% 29.96 in 7.0 mi SE 17.3 mph - N/A   Overcast
5:53 AM 64.0 °F 62.1 °F 93% 29.98 in 10.0 mi SE 10.4 mph - 0.00 in   Overcast
6:14 AM 64.9 °F 61.0 °F 87% 29.98 in 10.0 mi SE 10.4 mph - N/A   Overcast
6:53 AM 66.0 °F 61.0 °F 84% 29.98 in 10.0 mi SE 10.4 mph - N/A   Overcast
7:05 AM 66.0 °F 61.0 °F 84% 29.98 in 10.0 mi SE 9.2 mph - N/A   Overcast
7:36 AM 66.9 °F 61.0 °F 81% 29.99 in 10.0 mi ESE 11.5 mph - N/A   Overcast
7:45 AM 66.9 °F 60.1 °F 79% 29.99 in 10.0 mi ESE 13.8 mph - N/A   Overcast
7:53 AM 66.9 °F 60.1 °F 79% 29.99 in 10.0 mi ESE 11.5 mph - N/A   Overcast
8:48 AM 68.0 °F 60.8 °F 78% 29.97 in 10.0 mi ESE 13.8 mph - N/A   Overcast
8:53 AM 68.0 °F 61.0 °F 78% 29.99 in 10.0 mi ESE 16.1 mph - N/A   Mostly Cloudy
9:53 AM 72.0 °F 62.1 °F 71% 30.01 in 10.0 mi ESE 15.0 mph 21.9 mph N/A   Overcast
12:53 PM 70.0 °F 62.1 °F 76% 30.04 in 10.0 mi ESE 15.0 mph - N/A   Overcast
1:39 PM 71.1 °F 63.0 °F 75% 30.04 in 10.0 mi ESE 15.0 mph - N/A   Overcast
1:53 PM 70.0 °F 64.0 °F 81% 30.05 in 7.0 mi ESE 13.8 mph - N/A   Overcast
2:05 PM 71.1 °F 63.0 °F 75% 30.04 in 10.0 mi ESE 11.5 mph - N/A   Overcast
2:18 PM 71.1 °F 64.0 °F 78% 30.04 in - North - - N/A   Unknown
2:53 PM 70.0 °F 63.0 °F 78% 30.04 in - East 11.5 mph - N/A   Unknown
3:23 PM 71.1 °F 63.0 °F 75% 30.02 in 10.0 mi East 15.0 mph - N/A   Overcast
3:53 PM 71.1 °F 64.0 °F 78% 30.01 in 10.0 mi ESE 12.7 mph - N/A   Overcast
4:42 PM 69.1 °F 63.0 °F 81% 30.03 in 9.0 mi East 9.2 mph - N/A   Overcast
4:53 PM 68.0 °F 63.0 °F 84% 30.03 in 9.0 mi ENE 11.5 mph - N/A   Overcast
5:53 PM 66.0 °F 64.0 °F 93% 30.05 in 7.0 mi ENE 15.0 mph - 0.00 in Rain Light Rain
6:47 PM 66.2 °F 64.4 °F 94% 30.04 in 5.0 mi East 17.3 mph - 0.00 in   Overcast
6:53 PM 64.9 °F 63.0 °F 93% 30.05 in 5.0 mi East 19.6 mph 25.3 mph 0.00 in   Overcast
7:07 PM 64.9 °F 63.0 °F 93% 30.05 in 4.0 mi East 18.4 mph - N/A   Overcast
7:24 PM 64.9 °F 63.0 °F 93% 30.05 in 4.0 mi East 17.3 mph - N/A   Overcast
7:35 PM 64.9 °F 63.0 °F 93% 30.05 in 4.0 mi East 18.4 mph - N/A   Overcast
7:51 PM 64.4 °F 62.6 °F 94% 30.05 in 3.0 mi ENE 18.4 mph - N/A   Overcast
7:53 PM 64.9 °F 63.0 °F 93% 30.06 in 3.0 mi East 19.6 mph - N/A   Overcast
8:24 PM 64.9 °F 63.0 °F 93% 30.06 in 6.0 mi ENE 17.3 mph 24.2 mph N/A   Overcast
8:53 PM 64.9 °F 63.0 °F 93% 30.09 in 10.0 mi East 17.3 mph 24.2 mph N/A   Overcast
9:08 PM 66.0 °F 63.0 °F 90% 30.08 in 10.0 mi East 17.3 mph - N/A   Overcast
9:53 PM 66.0 °F 63.0 °F 90% 30.10 in 10.0 mi East 13.8 mph - N/A   Overcast
10:01 PM 66.0 °F 63.0 °F 90% 30.10 in 10.0 mi East 13.8 mph - N/A   Overcast
10:32 PM 66.0 °F 63.0 °F 90% 30.10 in 10.0 mi East 12.7 mph - N/A   Overcast
10:53 PM 66.0 °F 63.0 °F 90% 30.12 in 10.0 mi East 15.0 mph - N/A   Overcast
11:34 PM 66.0 °F 63.0 °F 90% 30.12 in 10.0 mi East 11.5 mph - N/A   Overcast
11:53 PM 66.0 °F 63.0 °F 90% 30.12 in 10.0 mi ENE 10.4 mph - N/A   Overcast